SAS225 EKCH-ESGG

Flight info

Callsign SAS225
Flight time 0h 29m
Altitude 20000
Route VEDAR L997 RISMA
Aircraft A320/M-SDE3FGHIRWY/LB1

Departure

Time 2026-04-26 07:49
Airport Copenhagen Kastrup Airport (EKCH)

Arrival

Time 2026-04-26 08:19
Airport Göteborg Landvetter Airport (ESGG)
Time Latitude Longitude Altitude Speed Heading
2026-04-26 07:27 55.62564 12.64510 24 ft 0 kts 16°
2026-04-26 07:42 55.62564 12.64509 24 ft 1 kts 16°
2026-04-26 07:42 55.62542 12.64498 25 ft 4 kts 16°
2026-04-26 07:42 55.62522 12.64488 27 ft 4 kts 13°
2026-04-26 07:42 55.62498 12.64486 27 ft 4 kts 323°
2026-04-26 07:43 55.62484 12.64517 27 ft 3 kts 303°
2026-04-26 07:43 55.62482 12.64523 25 ft 0 kts 303°
2026-04-26 07:45 55.62481 12.64507 26 ft 5 kts 258°
2026-04-26 07:45 55.62431 12.64475 24 ft 10 kts 192°
2026-04-26 07:45 55.62349 12.64438 24 ft 14 kts 196°
2026-04-26 07:46 55.62236 12.64399 22 ft 19 kts 174°
2026-04-26 07:46 55.62097 12.64442 24 ft 21 kts 169°
2026-04-26 07:46 55.61945 12.64496 24 ft 24 kts 168°
2026-04-26 07:46 55.61774 12.64554 25 ft 26 kts 169°
2026-04-26 07:47 55.61626 12.64511 25 ft 22 kts 212°
2026-04-26 07:47 55.61486 12.64351 24 ft 25 kts 214°
2026-04-26 07:47 55.61330 12.64169 24 ft 26 kts 212°
2026-04-26 07:47 55.61214 12.64136 24 ft 17 kts 148°
2026-04-26 07:48 55.61203 12.64335 24 ft 19 kts 71°
2026-04-26 07:48 55.61250 12.64573 25 ft 22 kts 71°
2026-04-26 07:48 55.61275 12.64789 25 ft 13 kts 52°
2026-04-26 07:48 55.61456 12.65074 25 ft 69 kts 41°
2026-04-26 07:49 55.61974 12.65873 29 ft 125 kts 41°
2026-04-26 07:49 55.62703 12.66995 365 ft 139 kts 38°
2026-04-26 07:49 55.63429 12.68110 1066 ft 137 kts 36°
2026-04-26 07:50 55.64996 12.70522 1753 ft 169 kts 32°
2026-04-26 07:50 55.66150 12.71106 2007 ft 186 kts 350°
2026-04-26 07:50 55.67463 12.70392 2324 ft 210 kts 343°
2026-04-26 07:50 55.68973 12.69832 2778 ft 233 kts 352°
2026-04-26 07:51 55.70616 12.69595 3719 ft 238 kts 356°
2026-04-26 07:51 55.72271 12.69465 4747 ft 240 kts 357°
2026-04-26 07:51 55.73950 12.69357 5719 ft 243 kts 357°
2026-04-26 07:51 55.75649 12.69237 6673 ft 246 kts 356°
2026-04-26 07:52 55.77371 12.69097 7573 ft 249 kts 356°
2026-04-26 07:52 55.79104 12.68936 8512 ft 250 kts 354°
2026-04-26 07:52 55.80792 12.68236 9456 ft 250 kts 337°
2026-04-26 07:52 55.82260 12.66640 10355 ft 253 kts 321°
2026-04-26 07:53 55.83404 12.64230 11151 ft 262 kts 306°
2026-04-26 07:53 55.84204 12.61136 11428 ft 288 kts 297°
2026-04-26 07:53 55.84976 12.57699 11732 ft 306 kts 297°
2026-04-26 07:53 55.85762 12.54132 12388 ft 312 kts 297°
2026-04-26 07:54 55.86551 12.50509 13141 ft 315 kts 297°
2026-04-26 07:54 55.87344 12.46854 13855 ft 318 kts 297°
2026-04-26 07:54 55.88150 12.43169 14545 ft 321 kts 297°
2026-04-26 07:54 55.89005 12.39500 15212 ft 320 kts 303°
2026-04-26 07:55 55.90246 12.36260 15862 ft 315 kts 315°
2026-04-26 07:55 55.91889 12.33709 16507 ft 314 kts 328°
2026-04-26 07:55 55.93841 12.31977 17168 ft 315 kts 340°
2026-04-26 07:55 55.95966 12.30948 17859 ft 318 kts 343°
2026-04-26 07:56 55.98111 12.29963 18604 ft 319 kts 343°
2026-04-26 07:56 56.00265 12.28968 19212 ft 321 kts 343°
2026-04-26 07:56 56.02432 12.27961 19815 ft 323 kts 343°
2026-04-26 07:56 56.04620 12.26940 20185 ft 325 kts 343°
2026-04-26 07:57 56.06818 12.25910 20275 ft 332 kts 343°
2026-04-26 07:57 56.09081 12.24845 20288 ft 339 kts 343°
2026-04-26 07:57 56.11386 12.23896 20289 ft 342 kts 348°
2026-04-26 07:57 56.13744 12.23261 20289 ft 343 kts 348°
2026-04-26 07:58 56.16101 12.22615 20289 ft 343 kts 348°
2026-04-26 07:58 56.18461 12.21964 20290 ft 343 kts 348°
2026-04-26 07:58 56.20819 12.21314 20292 ft 343 kts 348°
2026-04-26 07:58 56.23179 12.20665 20291 ft 343 kts 348°
2026-04-26 07:59 56.25535 12.20020 20304 ft 342 kts 348°
2026-04-26 07:59 56.27882 12.19375 20291 ft 341 kts 348°
2026-04-26 07:59 56.30227 12.18728 20290 ft 341 kts 348°
2026-04-26 07:59 56.32572 12.18081 20290 ft 341 kts 348°
2026-04-26 08:00 56.34917 12.17434 20290 ft 341 kts 348°
2026-04-26 08:00 56.37264 12.16783 20290 ft 341 kts 348°
2026-04-26 08:00 56.39612 12.16129 20246 ft 342 kts 348°
2026-04-26 08:00 56.41965 12.15475 20250 ft 342 kts 348°
2026-04-26 08:01 56.44323 12.14819 20255 ft 343 kts 348°
2026-04-26 08:01 56.46688 12.14158 20256 ft 344 kts 348°
2026-04-26 08:01 56.49055 12.13495 20259 ft 344 kts 348°
2026-04-26 08:01 56.51423 12.12837 20260 ft 345 kts 348°
2026-04-26 08:02 56.53798 12.12177 20297 ft 345 kts 348°
2026-04-26 08:02 56.56167 12.11515 20246 ft 342 kts 348°
2026-04-26 08:02 56.58485 12.10870 19987 ft 331 kts 348°
2026-04-26 08:02 56.60728 12.10250 19748 ft 321 kts 348°
2026-04-26 08:03 56.62911 12.09645 19512 ft 315 kts 347°
2026-04-26 08:03 56.65066 12.09039 19267 ft 312 kts 347°
2026-04-26 08:03 56.67207 12.08437 19025 ft 311 kts 347°
2026-04-26 08:03 56.69341 12.07837 18795 ft 310 kts 347°
2026-04-26 08:04 56.71468 12.07238 18550 ft 309 kts 348°
2026-04-26 08:04 56.73589 12.06638 18280 ft 308 kts 348°
2026-04-26 08:04 56.75703 12.06038 18010 ft 307 kts 348°
2026-04-26 08:04 56.77809 12.05442 17742 ft 306 kts 348°
2026-04-26 08:05 56.79910 12.04847 17514 ft 305 kts 348°
2026-04-26 08:05 56.81997 12.04254 17248 ft 303 kts 348°
2026-04-26 08:05 56.84055 12.03672 16932 ft 295 kts 348°
2026-04-26 08:05 56.86068 12.03108 16531 ft 290 kts 348°
2026-04-26 08:06 56.88051 12.02551 16141 ft 286 kts 348°
2026-04-26 08:06 56.90010 12.01994 15740 ft 283 kts 348°
2026-04-26 08:06 56.91937 12.01440 15345 ft 279 kts 348°
2026-04-26 08:06 56.93849 12.00892 14952 ft 277 kts 348°
2026-04-26 08:07 56.95741 12.00349 14559 ft 274 kts 348°
2026-04-26 08:07 56.97618 11.99810 14173 ft 272 kts 348°
2026-04-26 08:07 56.99461 11.99280 13751 ft 270 kts 348°
2026-04-26 08:07 57.01307 11.98749 13357 ft 268 kts 348°
2026-04-26 08:08 57.03169 11.98222 12973 ft 266 kts 350°
2026-04-26 08:08 57.04999 11.98124 12571 ft 269 kts
2026-04-26 08:08 57.06887 11.98564 12120 ft 270 kts
2026-04-26 08:08 57.08724 11.99026 11705 ft 270 kts
2026-04-26 08:09 57.10592 11.99496 11249 ft 271 kts
2026-04-26 08:09 57.12470 11.99964 10674 ft 276 kts
2026-04-26 08:09 57.14365 12.00434 10421 ft 270 kts
2026-04-26 08:09 57.16192 12.00894 10279 ft 260 kts
2026-04-26 08:10 57.17961 12.01338 10130 ft 253 kts
2026-04-26 08:10 57.19710 12.01774 10067 ft 254 kts
2026-04-26 08:10 57.21467 12.02207 9985 ft 255 kts
2026-04-26 08:10 57.23249 12.02641 9475 ft 260 kts
2026-04-26 08:11 57.25031 12.03080 9163 ft 256 kts
2026-04-26 08:11 57.26791 12.03519 8693 ft 255 kts
2026-04-26 08:11 57.28548 12.03958 8134 ft 255 kts
2026-04-26 08:11 57.30309 12.04398 7598 ft 255 kts
2026-04-26 08:12 57.32062 12.04840 7085 ft 254 kts
2026-04-26 08:12 57.33814 12.05282 6564 ft 254 kts
2026-04-26 08:12 57.35561 12.05725 6027 ft 253 kts
2026-04-26 08:12 57.37315 12.06167 5413 ft 257 kts
2026-04-26 08:13 57.39080 12.06612 5127 ft 253 kts
2026-04-26 08:13 57.40795 12.07031 4959 ft 245 kts
2026-04-26 08:13 57.42466 12.07426 4768 ft 239 kts
2026-04-26 08:13 57.44076 12.08011 4595 ft 232 kts 15°
2026-04-26 08:14 57.45534 12.09179 4491 ft 224 kts 24°
2026-04-26 08:14 57.46900 12.10460 4412 ft 215 kts 24°
2026-04-26 08:14 57.48215 12.11668 4290 ft 208 kts 24°
2026-04-26 08:14 57.49510 12.12829 4007 ft 205 kts 23°
2026-04-26 08:15 57.50757 12.13939 3735 ft 197 kts 24°
2026-04-26 08:15 57.51972 12.15019 3486 ft 190 kts 24°
2026-04-26 08:15 57.53129 12.16061 3310 ft 182 kts 24°
2026-04-26 08:15 57.54256 12.17092 3020 ft 179 kts 25°
2026-04-26 08:16 57.55379 12.18105 2735 ft 177 kts 25°
2026-04-26 08:16 57.56471 12.19094 2480 ft 171 kts 24°
2026-04-26 08:16 57.57509 12.20034 2216 ft 160 kts 24°
2026-04-26 08:16 57.58472 12.20901 2005 ft 147 kts 24°
2026-04-26 08:17 57.59375 12.21725 1757 ft 145 kts 24°
2026-04-26 08:17 57.60280 12.22537 1577 ft 142 kts 25°
2026-04-26 08:17 57.61167 12.23344 1373 ft 143 kts 23°
2026-04-26 08:17 57.62069 12.24144 1160 ft 140 kts 24°
2026-04-26 08:18 57.62936 12.24924 970 ft 138 kts 24°
2026-04-26 08:18 57.63824 12.25734 792 ft 145 kts 24°
2026-04-26 08:18 57.64706 12.26542 596 ft 136 kts 23°
2026-04-26 08:18 57.65506 12.27266 503 ft 114 kts 26°
2026-04-26 08:19 57.66065 12.27779 508 ft 65 kts 26°
2026-04-26 08:19 57.66363 12.28049 511 ft 42 kts 26°
2026-04-26 08:19 57.66591 12.28291 512 ft 29 kts 44°
2026-04-26 08:19 57.66702 12.28538 512 ft 18 kts 51°
2026-04-26 08:20 57.66774 12.28729 513 ft 17 kts 55°
2026-04-26 08:20 57.66864 12.28861 513 ft 15 kts 29°
2026-04-26 08:20 57.66968 12.28947 514 ft 18 kts 25°
2026-04-26 08:20 57.67038 12.29092 514 ft 15 kts 112°
2026-04-26 08:21 57.66999 12.29244 516 ft 12 kts 115°
2026-04-26 08:21 57.66960 12.29361 516 ft 11 kts 124°
2026-04-26 08:21 57.66937 12.29448 516 ft 4 kts 116°
2026-04-26 08:21 57.66932 12.29465 516 ft 1 kts 116°
2026-04-26 08:22 57.66932 12.29467 516 ft 0 kts 116°